• In India
  • List of Countries
  • For 7 days
  • Water Temperature
  • Satellite Maps
  • Weather Map
  • Weather Widgets
  • user-avatar
    Login

    Hourly Weather Kulin

    Today, 25 September, Tuesday

    Time Temperature Precipitation Wind Pressure Humidity
    00:00 +5°C° 0 mm 5 mps 757 mmHg 80%
    01:00 +4°C° 0 mm 4 mps 757 mmHg 85%
    02:00 +4°C° 0 mm 4 mps 758 mmHg 85%
    03:00 +3°C° 0 mm 5 mps 758 mmHg 85%
    04:00 +3°C° 0 mm 5 mps 758 mmHg 85%
    05:00 +3°C° 0 mm 5 mps 759 mmHg 84%
    06:00 +3°C° 0 mm 5 mps 760 mmHg 83%
    07:00 +3°C° 0 mm 5 mps 760 mmHg 81%
    08:00 +6°C° 0 mm 5 mps 761 mmHg 75%
    09:00 +7°C° 0 mm 5 mps 761 mmHg 69%
    10:00 +9°C° 0 mm 5 mps 761 mmHg 63%
    11:00 +10°C° 0 mm 5 mps 761 mmHg 59%
    12:00 +10°C° 0 mm 5 mps 762 mmHg 54%
    13:00 +12°C° 0 mm 5 mps 762 mmHg 50%
    14:00 +12°C° 0 mm 5 mps 762 mmHg 50%
    15:00 +12°C° 0 mm 5 mps 762 mmHg 51%
    16:00 +12°C° 0 mm 4 mps 762 mmHg 52%
    17:00 +11°C° 0 mm 4 mps 762 mmHg 57%
    18:00 +9°C° 0 mm 3 mps 762 mmHg 63%
    19:00 +8°C° 0 mm 2 mps 763 mmHg 68%
    20:00 +7°C° 0 mm 2 mps 763 mmHg 69%
    21:00 +7°C° 0 mm 2 mps 764 mmHg 70%
    22:00 +7°C° 0 mm 2 mps 764 mmHg 72%
    23:00 +6°C° 0 mm 2 mps 764 mmHg 72%

    Tomorrow, 26 September, Wednesday

    Time Temperature Precipitation Wind Pressure Humidity
    00:00 +6°C° 0 mm 2 mps 764 mmHg 73%
    01:00 +6°C° 0 mm 2 mps 764 mmHg 74%
    02:00 +5°C° 0 mm 2 mps 764 mmHg 74%
    03:00 +5°C° 0 mm 2 mps 764 mmHg 75%
    04:00 +5°C° 0 mm 2 mps 764 mmHg 75%
    05:00 +5°C° 0 mm 2 mps 764 mmHg 73%
    06:00 +6°C° 0 mm 2 mps 764 mmHg 72%
    07:00 +6°C° 0 mm 2 mps 764 mmHg 71%
    08:00 +8°C° 0 mm 3 mps 763 mmHg 63%
    09:00 +10°C° 0 mm 3 mps 763 mmHg 55%
    10:00 +12°C° 0 mm 3 mps 763 mmHg 48%
    11:00 +13°C° 0 mm 4 mps 762 mmHg 44%
    12:00 +14°C° 0 mm 4 mps 762 mmHg 41%
    13:00 +15°C° 0 mm 4 mps 761 mmHg 38%
    14:00 +15°C° 0 mm 4 mps 761 mmHg 40%
    15:00 +15°C° 0 mm 4 mps 760 mmHg 41%
    16:00 +15°C° 0 mm 4 mps 759 mmHg 43%
    17:00 +14°C° 0 mm 4 mps 759 mmHg 45%
    18:00 +13°C° 0 mm 4 mps 759 mmHg 47%
    19:00 +12°C° 0 mm 4 mps 759 mmHg 50%
    20:00 +11°C° 0 mm 4 mps 759 mmHg 50%
    21:00 +11°C° 0 mm 4 mps 759 mmHg 49%
    22:00 +11°C° 0 mm 4 mps 759 mmHg 49%
    23:00 +11°C° 0 mm 4 mps 759 mmHg 50%

    Day after tomorrow, 27 September, Thursday

    Time Temperature Precipitation Wind Pressure Humidity
    00:00 +11°C° 0 mm 4 mps 759 mmHg 51%
    01:00 +11°C° 0 mm 4 mps 759 mmHg 52%
    02:00 +11°C° 0 mm 4 mps 758 mmHg 52%
    03:00 +11°C° 0 mm 4 mps 758 mmHg 53%
    04:00 +11°C° 0 mm 4 mps 758 mmHg 54%
    05:00 +11°C° 0 mm 4 mps 758 mmHg 55%
    06:00 +11°C° 0 mm 4 mps 758 mmHg 56%
    07:00 +11°C° 0 mm 4 mps 758 mmHg 57%
    08:00 +13°C° 0 mm 4 mps 758 mmHg 55%
    09:00 +15°C° 0 mm 5 mps 758 mmHg 54%
    10:00 +17°C° 0 mm 5 mps 758 mmHg 52%
    11:00 +19°C° 0 mm 5 mps 758 mmHg 53%
    12:00 +20°C° 0 mm 5 mps 757 mmHg 53%
    13:00 +22°C° 0 mm 5 mps 757 mmHg 53%
    14:00 +21°C° 0 mm 4 mps 757 mmHg 54%
    15:00 +21°C° 0 mm 4 mps 756 mmHg 56%
    16:00 +21°C° 0 mm 3 mps 756 mmHg 57%
    17:00 +20°C° 0 mm 3 mps 755 mmHg 62%
    18:00 +18°C° 0 mm 2 mps 755 mmHg 67%
    19:00 +16°C° 0 mm 2 mps 755 mmHg 71%
    20:00 +16°C° 0 mm 2 mps 755 mmHg 70%
    21:00 +16°C° 0 mm 2 mps 754 mmHg 69%
    22:00 +14°C° 0 mm 3 mps 754 mmHg 68%
    23:00 +14°C° 0 mm 3 mps 754 mmHg 66%

    28 September, Friday

    Time Temperature Precipitation Wind Pressure Humidity
    00:00 +14°C° 0 mm 3 mps 753 mmHg 64%
    01:00 +14°C° 0 mm 3 mps 752 mmHg 63%
    02:00 +13°C° 0 mm 3 mps 752 mmHg 62%
    03:00 +13°C° 0 mm 3 mps 751 mmHg 62%
    04:00 +13°C° 0 mm 3 mps 751 mmHg 61%
    05:00 +12°C° 0 mm 3 mps 751 mmHg 62%
    06:00 +12°C° 0 mm 3 mps 751 mmHg 62%
    07:00 +12°C° 0 mm 3 mps 750 mmHg 63%
    08:00 +14°C° 0 mm 4 mps 751 mmHg 59%
    09:00 +15°C° 0 mm 4 mps 751 mmHg 55%
    10:00 +18°C° 0 mm 4 mps 751 mmHg 51%
    11:00 +19°C° 0 mm 4 mps 751 mmHg 50%
    12:00 +19°C° 0 mm 4 mps 751 mmHg 50%
    13:00 +20°C° 0 mm 4 mps 750 mmHg 49%
    14:00 +19°C° 0 mm 4 mps 750 mmHg 54%
    15:00 +18°C° 0 mm 4 mps 750 mmHg 59%
    16:00 +17°C° 0 mm 4 mps 750 mmHg 64%
    17:00 +15°C° 0 mm 4 mps 751 mmHg 68%
    18:00 +13°C° 0 mm 3 mps 751 mmHg 71%
    19:00 +12°C° 0 mm 3 mps 752 mmHg 75%
    20:00 +11°C° 0 mm 3 mps 752 mmHg 76%
    21:00 +12°C° 0 mm 2 mps 752 mmHg 77%
    22:00 +10°C° 0 mm 2 mps 753 mmHg 78%
    23:00 +9°C° 0 mm 2 mps 753 mmHg 78%

    29 September, Saturday

    Time Temperature Precipitation Wind Pressure Humidity
    00:00 +9°C° 0 mm 2 mps 753 mmHg 79%
    01:00 +9°C° 0 mm 2 mps 753 mmHg 79%
    02:00 +8°C° 0 mm 2 mps 753 mmHg 82%
    03:00 +7°C° 0 mm 2 mps 754 mmHg 85%
    04:00 +7°C° 0 mm 2 mps 754 mmHg 88%
    05:00 +7°C° 0 mm 2 mps 754 mmHg 87%
    06:00 +7°C° 0 mm 2 mps 755 mmHg 87%
    07:00 +7°C° 0 mm 2 mps 755 mmHg 86%
    08:00 +9°C° 0 mm 3 mps 756 mmHg 76%
    09:00 +10°C° 0 mm 3 mps 756 mmHg 66%
    10:00 +12°C° 0 mm 3 mps 756 mmHg 55%
    11:00 +13°C° 0 mm 3 mps 756 mmHg 52%
    12:00 +13°C° 0 mm 3 mps 756 mmHg 48%
    13:00 +14°C° 0 mm 3 mps 756 mmHg 44%
    14:00 +14°C° 0 mm 3 mps 756 mmHg 45%
    15:00 +13°C° 0 mm 3 mps 756 mmHg 46%
    16:00 +13°C° 0 mm 3 mps 756 mmHg 46%
    17:00 +13°C° 0 mm 2 mps 756 mmHg 51%
    18:00 +10°C° 0 mm 2 mps 756 mmHg 56%
    19:00 +10°C° 0 mm 1 mps 757 mmHg 61%
    20:00 +8°C° 0 mm 2 mps 757 mmHg 62%
    21:00 +8°C° 0 mm 2 mps 757 mmHg 63%
    22:00 +7°C° 0 mm 2 mps 757 mmHg 64%
    23:00 +7°C° 0 mm 2 mps 757 mmHg 65%

    30 September, Sunday

    Time Temperature Precipitation Wind Pressure Humidity
    00:00 +7°C° 0 mm 2 mps 756 mmHg 65%
    01:00 +6°C° 0 mm 2 mps 756 mmHg 66%
    02:00 +6°C° 0 mm 2 mps 756 mmHg 68%
    03:00 +6°C° 0 mm 2 mps 756 mmHg 70%
    04:00 +5°C° 0 mm 2 mps 756 mmHg 72%
    05:00 +6°C° 0 mm 2 mps 755 mmHg 72%
    06:00 +6°C° 0 mm 2 mps 755 mmHg 73%
    07:00 +6°C° 0 mm 2 mps 755 mmHg 73%
    08:00 +8°C° 0 mm 2 mps 755 mmHg 66%
    09:00 +10°C° 0 mm 3 mps 755 mmHg 59%
    10:00 +12°C° 0 mm 4 mps 754 mmHg 51%
    11:00 +13°C° 0 mm 4 mps 754 mmHg 49%
    12:00 +14°C° 0 mm 4 mps 753 mmHg 46%
    13:00 +15°C° 0 mm 4 mps 753 mmHg 43%
    14:00 +16°C° 0 mm 3 mps 752 mmHg 45%
    15:00 +16°C° 0 mm 3 mps 751 mmHg 46%
    16:00 +16°C° 0 mm 3 mps 751 mmHg 47%
    17:00 +13°C° 0 mm 3 mps 751 mmHg 53%
    18:00 +12°C° 0 mm 2 mps 750 mmHg 58%
    19:00 +10°C° 0 mm 2 mps 750 mmHg 63%
    20:00 +9°C° 0 mm 2 mps 750 mmHg 64%
    21:00 +9°C° 0 mm 2 mps 750 mmHg 65%
    22:00 +9°C° 0 mm 1 mps 750 mmHg 66%
    23:00 +9°C° 0 mm 1 mps 749 mmHg 67%
    Show more